Regional Weather Roundup
Issued by NWS Newport/Morehead, NC

Current Version | Previous Version | Graphics & Text | Print | Product List | Glossary On
Versions: 1 2 3 4 5 6 7 8 9 10 11 12 13 14 15 16 17 18 19 20 21 22 23 24 25 26 27 28 29 30 31 32 33 34 35 36 37 38 39 40 41 42 43 44 45 46 47 48 49 50
000 ASUS42 KMHX 230013 RWRMHX WEATHER ROUNDUP FOR EASTERN NORTH CAROLINA NATIONAL WEATHER SERVICE NEWPORT/MOREHEAD CITY NC 800 PM EDT THU JUN 22 2017 NOTE: "FAIR" INDICATES FEW OR NO CLOUDS BELOW 12,000 FEET WITH NO SIGNIFICANT WEATHER AND/OR OBSTRUCTIONS TO VISIBILITY NCZ015>017-031-032-045>047-102-103-230100- NORTH COAST CITY SKY/WX TMP DP RH WIND PRES REMARKS EDENTON CLOUDY 83 75 76 SW8 30.03S ELIZABETH CITY CLOUDY 82 76 81 SW8 30.01S KITTY HAWK CLOUDY 83 72 70 CALM 30.00F MANTEO CLOUDY 82 74 75 W9 30.02S $$ NCZ045>047-081-094-103-104-230100- CENTRAL COAST CITY SKY/WX TMP DP RH WIND PRES REMARKS FRISCO LGT RAIN 80 75 84 W8 30.05S $$ NCZ095-097-098-100-101-230100- SOUTHERN COAST CITY SKY/WX TMP DP RH WIND PRES REMARKS BEAUFORT CLOUDY 80 79 96 S5 30.05F CEDAR ISLAND NOT AVBL JACKSONVILLE CLOUDY 78 77 96 SW5 30.05S PINEY ISLAND CLOUDY N/A N/A N/A S3 30.03F WILMINGTON CLOUDY 78 77 96 CALM 30.07S $$ NCZ011>013-027>030-043-044-078>080-089-090>093-098-230100- COASTAL PLAIN CITY SKY/WX TMP DP RH WIND PRES REMARKS AHOSKIE N/A 78 75 90 CALM 30.02S CLINTON CLOUDY 76 76 99 CALM 30.07R ELIZABETHTOWN NOT AVBL GOLDSBORO CLOUDY 78 77 98 S3 30.04S GREENVILLE CLOUDY 81 77 89 SW5 30.06S HAVELOCK CLOUDY 79 75 87 CALM 30.06S KENANSVILLE CLOUDY 77 75 94 CALM 30.06S KINSTON MOCLDY 79 77 94 SW3 30.06S NEW BERN CLOUDY 77 75 93 S6 30.06R RICHLANDS CLOUDY 77 75 93 SW3 30.06F ROCKY MOUNT MOCLDY 78 75 90 S5 30.03F WASHINGTON CLOUDY 79 76 90 SW5 30.04S WHITEVILLE PTCLDY 81 76 85 SE3 30.07F $$ AMZ130-135-150-152-154-156-158-170-250-252-270-ANZ085-086-088-633-658-670-230100- MARINE OBSERVATIONS STATION/POSITION TIME TEMP WIND PRES WAVE SWELL AIR SEA DIR/SP/G HT/PER HT/PER (UTC) (F) (DEG/KT/KT) (MB) (FT/S) (FT/S) CHESAPEAKE LIGHT NOT AVBL 64 E VA BEACH 2350 74 73 200/ 10/ 10 1016.1 2/ 9 2/ 9 DUCK 2348 82 66 240/ 12/ 14 1015.7 2 E DUCK NOT AVBL OREGON INLET 2348 230/ 10/ 12 1016.4 13E OREGON INLT 2348 73 N/A 3/ 8 2/ 8 HATTERAS CG 2348 79 80 250/ 7/ 12 1017.3 DIAMOND BUOY 2350 80 81 240/ 16/ 17 1017.2 3/ 8 2/ 8 CAPE LOOKOUT 0000 79 200/ 6/ 7 1017.3 BEAUFORT LAB 2348 79 78 200/ 4/ 5 1016.7 30 SE NEW RVR IN 2308 80 81 240/ 6/ 8 1018.3 30 SE NEW RVR IN 2343 81 N/A 3/ 9 27 SE WRIGHTSVLE 2308 79 80 240/ 8/ 10 1018.2 5 SE WRIGHTSVLE 2308 79 79 CALM / 4 1018.0 225 S CAPE HAT 2350 81 82 220/ 8/ 10 1020.0 4/ 9 5/ 9 41 SE CHARLESTON 2350 81 82 190/ 10/ 10 1018.1 3/ 8 3/ 8 $$

USA.gov is the U.S. government's official web portal to all federal, state and local government web resources and services.